Powrót do katalogu

NIMBUS 2 DEB

AktywnySSO
NORAD 59977·DEBRIS·🇺🇸 United States

Wystrzelony May 15, 1966 z Vandenberg Space Force Base

Loading…

Następne Przeloty (najbliższe 24 godziny)

TLE

ŚwieżeSource: Space-Track

Epoka: Sep 14, 2026, 11:19 UTC

1 59977U 66040CG  26257.47170381  .00000872  00000-0  16438-2 0  9997
2 59977 100.3136  74.2915 0051280 354.1709   5.8816 13.41195470470224

Śledź NIMBUS 2 DEB w czasie rzeczywistym z AllMySat

Download on the App Store